SJV535 WAAA-WALL

Flight info

Callsign SJV535
Flight time 0h 50m
Altitude 32000
Route MKS
Aircraft A320/M-SDE3FGHIRWY/LB1

Departure

Time 2026-04-23 18:18
Airport Sultan Hasanuddin International Airport (WAAA)

Arrival

Time 2026-04-23 19:09
Airport Sultan Aji Muhammad Sulaiman Sepinggan International Airport (WALL)
Time Latitude Longitude Altitude Speed Heading
2026-04-23 17:58 -5.08498 119.54527 42 ft 0 kts 120°
2026-04-23 18:08 -5.08490 119.54514 41 ft 3 kts 122°
2026-04-23 18:08 -5.08479 119.54498 40 ft 3 kts 129°
2026-04-23 18:09 -5.08465 119.54483 40 ft 3 kts 143°
2026-04-23 18:09 -5.08449 119.54474 40 ft 3 kts 178°
2026-04-23 18:09 -5.08438 119.54475 39 ft 0 kts 210°
2026-04-23 18:13 -5.08441 119.54473 41 ft 1 kts 210°
2026-04-23 18:13 -5.08456 119.54465 39 ft 3 kts 210°
2026-04-23 18:13 -5.08483 119.54450 41 ft 5 kts 208°
2026-04-23 18:13 -5.08524 119.54449 41 ft 7 kts 150°
2026-04-23 18:14 -5.08552 119.54495 41 ft 9 kts 119°
2026-04-23 18:14 -5.08595 119.54544 41 ft 10 kts 155°
2026-04-23 18:14 -5.08667 119.54523 41 ft 12 kts 210°
2026-04-23 18:14 -5.08750 119.54476 41 ft 15 kts 210°
2026-04-23 18:15 -5.08846 119.54420 41 ft 17 kts 210°
2026-04-23 18:15 -5.08954 119.54358 41 ft 19 kts 210°
2026-04-23 18:15 -5.09069 119.54292 41 ft 15 kts 210°
2026-04-23 18:15 -5.09148 119.54276 41 ft 13 kts 157°
2026-04-23 18:16 -5.09174 119.54305 41 ft 1 kts 112°
2026-04-23 18:16 -5.09178 119.54315 41 ft 2 kts 113°
2026-04-23 18:16 -5.09189 119.54335 41 ft 4 kts 120°
2026-04-23 18:17 -5.09200 119.54395 42 ft 7 kts 79°
2026-04-23 18:17 -5.09165 119.54442 42 ft 10 kts 31°
2026-04-23 18:17 -5.09160 119.54445 42 ft 0 kts 29°
2026-04-23 18:17 -5.09033 119.54519 44 ft 52 kts 30°
2026-04-23 18:18 -5.08524 119.54811 41 ft 114 kts 30°
2026-04-23 18:18 -5.07692 119.55291 42 ft 159 kts 30°
2026-04-23 18:18 -5.06664 119.55903 364 ft 176 kts 31°
2026-04-23 18:18 -5.05610 119.56532 1048 ft 176 kts 31°
2026-04-23 18:19 -5.04557 119.57156 1732 ft 176 kts 31°
2026-04-23 18:19 -5.03365 119.57637 1995 ft 197 kts
2026-04-23 18:19 -5.01989 119.57271 2185 ft 222 kts 322°
2026-04-23 18:19 -5.01116 119.55936 2491 ft 246 kts 284°
2026-04-23 18:20 -5.00791 119.54177 2931 ft 265 kts 286°
2026-04-23 18:20 -4.99827 119.52598 3635 ft 272 kts 317°
2026-04-23 18:20 -4.98309 119.51456 4450 ft 275 kts 329°
2026-04-23 18:20 -4.96648 119.50474 5236 ft 280 kts 332°
2026-04-23 18:21 -4.94956 119.49472 6030 ft 285 kts 330°
2026-04-23 18:21 -4.93275 119.48388 6787 ft 289 kts 327°
2026-04-23 18:21 -4.91620 119.47222 7511 ft 293 kts 325°
2026-04-23 18:21 -4.89983 119.45986 8265 ft 296 kts 323°
2026-04-23 18:22 -4.88351 119.44705 9020 ft 300 kts 323°
2026-04-23 18:22 -4.86713 119.43391 9751 ft 303 kts 322°
2026-04-23 18:22 -4.85052 119.42048 10259 ft 315 kts 322°
2026-04-23 18:22 -4.83286 119.40622 10409 ft 337 kts 322°
2026-04-23 18:23 -4.82050 119.39627 10539 ft 350 kts 322°
2026-04-23 18:23 -4.77519 119.35989 11811 ft 361 kts 322°
2026-04-23 18:24 -4.73567 119.32823 13019 ft 366 kts 322°
2026-04-23 18:24 -4.71570 119.31223 13614 ft 368 kts 322°
2026-04-23 18:24 -4.69563 119.29616 14135 ft 371 kts 322°
2026-04-23 18:25 -4.65500 119.26357 15131 ft 377 kts 322°
2026-04-23 18:25 -4.63447 119.24710 15632 ft 379 kts 323°
2026-04-23 18:25 -4.61377 119.23051 16119 ft 382 kts 323°
2026-04-23 18:25 -4.59290 119.21378 16598 ft 385 kts 323°
2026-04-23 18:26 -4.57189 119.19695 17077 ft 388 kts 323°
2026-04-23 18:26 -4.55100 119.18021 17541 ft 391 kts 323°
2026-04-23 18:26 -4.52964 119.16310 18016 ft 394 kts 323°
2026-04-23 18:26 -4.50814 119.14589 18434 ft 397 kts 323°
2026-04-23 18:27 -4.48646 119.12855 18833 ft 400 kts 323°
2026-04-23 18:27 -4.46462 119.11107 19233 ft 403 kts 323°
2026-04-23 18:27 -4.44265 119.09346 19660 ft 406 kts 322°
2026-04-23 18:27 -4.42052 119.07572 20048 ft 409 kts 322°
2026-04-23 18:28 -4.39826 119.05786 20445 ft 411 kts 322°
2026-04-23 18:28 -4.37581 119.03988 20856 ft 414 kts 323°
2026-04-23 18:28 -4.35325 119.02185 21265 ft 417 kts 323°
2026-04-23 18:28 -4.33048 119.00367 21658 ft 420 kts 323°
2026-04-23 18:29 -4.30763 118.98538 22048 ft 422 kts 323°
2026-04-23 18:29 -4.28463 118.96691 22427 ft 425 kts 322°
2026-04-23 18:29 -4.26150 118.94834 22793 ft 427 kts 323°
2026-04-23 18:29 -4.23822 118.92972 23163 ft 430 kts 323°
2026-04-23 18:30 -4.21477 118.91099 23508 ft 432 kts 323°
2026-04-23 18:30 -4.19120 118.89214 23810 ft 435 kts 323°
2026-04-23 18:30 -4.16751 118.87317 24119 ft 437 kts 323°
2026-04-23 18:30 -4.14375 118.85414 24431 ft 438 kts 323°
2026-04-23 18:31 -4.11985 118.83503 24738 ft 440 kts 323°
2026-04-23 18:31 -4.09584 118.81587 25045 ft 442 kts 323°
2026-04-23 18:31 -4.07174 118.79661 25355 ft 444 kts 323°
2026-04-23 18:31 -4.04755 118.77726 25650 ft 446 kts 323°
2026-04-23 18:32 -4.02330 118.75784 25951 ft 448 kts 323°
2026-04-23 18:32 -3.99889 118.73831 26243 ft 450 kts 323°
2026-04-23 18:32 -3.97439 118.71873 26521 ft 452 kts 323°
2026-04-23 18:32 -3.94980 118.69909 26794 ft 454 kts 323°
2026-04-23 18:33 -3.92540 118.67958 27078 ft 455 kts 323°
2026-04-23 18:33 -3.90029 118.65949 27359 ft 457 kts 323°
2026-04-23 18:33 -3.87537 118.63960 27642 ft 459 kts 323°
2026-04-23 18:33 -3.85037 118.61964 27926 ft 461 kts 323°
2026-04-23 18:34 -3.82525 118.59955 28220 ft 463 kts 323°
2026-04-23 18:34 -3.80037 118.57965 28504 ft 465 kts 323°
2026-04-23 18:34 -3.77506 118.55944 28788 ft 467 kts 323°
2026-04-23 18:34 -3.74961 118.53914 29071 ft 469 kts 323°
2026-04-23 18:35 -3.72403 118.51873 29348 ft 471 kts 323°
2026-04-23 18:35 -3.69844 118.49829 29699 ft 471 kts 323°
2026-04-23 18:35 -3.67287 118.47782 30076 ft 470 kts 323°
2026-04-23 18:35 -3.64735 118.45739 30397 ft 470 kts 323°
2026-04-23 18:36 -3.62183 118.43699 30730 ft 469 kts 323°
2026-04-23 18:36 -3.59630 118.41661 31067 ft 469 kts 323°
2026-04-23 18:36 -3.57082 118.39627 31392 ft 469 kts 323°
2026-04-23 18:36 -3.54534 118.37592 31725 ft 469 kts 323°
2026-04-23 18:37 -3.51983 118.35555 31839 ft 469 kts 323°
2026-04-23 18:37 -3.46885 118.31488 31865 ft 468 kts 323°
2026-04-23 18:38 -3.41797 118.27428 31866 ft 468 kts 323°
2026-04-23 18:38 -3.36711 118.23365 31865 ft 468 kts 323°
2026-04-23 18:39 -3.31620 118.19307 31869 ft 468 kts 323°
2026-04-23 18:39 -3.26524 118.15252 31869 ft 468 kts 323°
2026-04-23 18:40 -3.21465 118.11207 31867 ft 468 kts 323°
2026-04-23 18:40 -3.16376 118.07138 31873 ft 468 kts 323°
2026-04-23 18:41 -3.11275 118.03072 31872 ft 469 kts 323°
2026-04-23 18:41 -3.06175 117.99009 31872 ft 469 kts 323°
2026-04-23 18:42 -3.01072 117.94936 31874 ft 469 kts 323°
2026-04-23 18:42 -2.95971 117.90857 31875 ft 469 kts 322°
2026-04-23 18:43 -2.91762 117.87356 31872 ft 470 kts 321°
2026-04-23 18:43 -2.86786 117.83121 31875 ft 470 kts 321°
2026-04-23 18:44 -2.81801 117.78899 31876 ft 469 kts 321°
2026-04-23 18:44 -2.76803 117.74701 31875 ft 469 kts 321°
2026-04-23 18:45 -2.71802 117.70504 31873 ft 469 kts 321°
2026-04-23 18:45 -2.66743 117.66375 31873 ft 468 kts 327°
2026-04-23 18:46 -2.60995 117.63522 31871 ft 464 kts 341°
2026-04-23 18:46 -2.54942 117.61254 31870 ft 465 kts 341°
2026-04-23 18:47 -2.48891 117.58973 31873 ft 465 kts 341°
2026-04-23 18:47 -2.45869 117.57824 31760 ft 465 kts 341°
2026-04-23 18:47 -2.42842 117.56674 31517 ft 465 kts 341°
2026-04-23 18:47 -2.39815 117.55526 31274 ft 465 kts 341°
2026-04-23 18:48 -2.36792 117.54384 31047 ft 465 kts 341°
2026-04-23 18:48 -2.33759 117.53239 30821 ft 465 kts 341°
2026-04-23 18:48 -2.30735 117.52100 30585 ft 464 kts 341°
2026-04-23 18:48 -2.27719 117.50965 30334 ft 461 kts 341°
2026-04-23 18:49 -2.24730 117.49839 29767 ft 458 kts 341°
2026-04-23 18:49 -2.21753 117.48717 29137 ft 455 kts 341°
2026-04-23 18:49 -2.18803 117.47604 28561 ft 452 kts 341°
2026-04-23 18:49 -2.15874 117.46498 27986 ft 448 kts 341°
2026-04-23 18:50 -2.13948 117.45771 27614 ft 446 kts 341°
2026-04-23 18:50 -2.10081 117.44313 26845 ft 442 kts 341°
2026-04-23 18:50 -2.07210 117.43230 26286 ft 439 kts 341°
2026-04-23 18:50 -2.04363 117.42155 25728 ft 436 kts 341°
2026-04-23 18:51 -2.01533 117.41086 25187 ft 433 kts 341°
2026-04-23 18:51 -1.98722 117.40025 24665 ft 431 kts 341°
2026-04-23 18:51 -1.95925 117.38973 24152 ft 428 kts 341°
2026-04-23 18:51 -1.93146 117.37927 23646 ft 425 kts 341°
2026-04-23 18:52 -1.90388 117.36886 23116 ft 423 kts 341°
2026-04-23 18:52 -1.87652 117.35852 22631 ft 418 kts 341°
2026-04-23 18:52 -1.84946 117.34830 22147 ft 414 kts 341°
2026-04-23 18:52 -1.82266 117.33818 21669 ft 411 kts 341°
2026-04-23 18:53 -1.79596 117.32811 21125 ft 409 kts 341°
2026-04-23 18:53 -1.76944 117.31813 20612 ft 406 kts 341°
2026-04-23 18:53 -1.74306 117.30818 20100 ft 404 kts 341°
2026-04-23 18:53 -1.71681 117.29827 19586 ft 402 kts 341°
2026-04-23 18:54 -1.69073 117.28841 19079 ft 400 kts 341°
2026-04-23 18:54 -1.66479 117.27863 18561 ft 398 kts 341°
2026-04-23 18:54 -1.63923 117.26901 18382 ft 386 kts 341°
2026-04-23 18:54 -1.61459 117.25973 18272 ft 372 kts 341°
2026-04-23 18:55 -1.59087 117.25078 18132 ft 355 kts 341°
2026-04-23 18:55 -1.56816 117.24216 17615 ft 344 kts 341°
2026-04-23 18:55 -1.54597 117.23376 16992 ft 339 kts 341°
2026-04-23 18:55 -1.52407 117.22548 16345 ft 334 kts 341°
2026-04-23 18:56 -1.50971 117.22008 15926 ft 332 kts 341°
2026-04-23 18:56 -1.48098 117.20931 15103 ft 327 kts 341°
2026-04-23 18:56 -1.45978 117.20136 14535 ft 323 kts 341°
2026-04-23 18:56 -1.43924 117.19362 14121 ft 318 kts 341°
2026-04-23 18:57 -1.41853 117.18581 13716 ft 319 kts 341°
2026-04-23 18:57 -1.39775 117.17797 13310 ft 319 kts 341°
2026-04-23 18:57 -1.37704 117.17015 12915 ft 318 kts 341°
2026-04-23 18:57 -1.35658 117.16190 12516 ft 319 kts 333°
2026-04-23 18:58 -1.33981 117.14760 12159 ft 320 kts 308°
2026-04-23 18:58 -1.33067 117.12747 11815 ft 320 kts 281°
2026-04-23 18:58 -1.33080 117.10551 11489 ft 317 kts 257°
2026-04-23 18:58 -1.33652 117.08426 11116 ft 317 kts 253°
2026-04-23 18:59 -1.34259 117.06313 10732 ft 314 kts 253°
2026-04-23 18:59 -1.34863 117.04227 10144 ft 312 kts 253°
2026-04-23 18:59 -1.35463 117.02153 9551 ft 310 kts 253°
2026-04-23 18:59 -1.36054 117.00095 8943 ft 306 kts 253°
2026-04-23 19:00 -1.36636 116.98062 8369 ft 302 kts 253°
2026-04-23 19:00 -1.37209 116.96057 7804 ft 298 kts 253°
2026-04-23 19:00 -1.37773 116.94074 7243 ft 295 kts 253°
2026-04-23 19:00 -1.38332 116.92114 6696 ft 292 kts 253°
2026-04-23 19:01 -1.38905 116.90178 6147 ft 289 kts 251°
2026-04-23 19:01 -1.39553 116.88294 5612 ft 284 kts 249°
2026-04-23 19:01 -1.40232 116.86464 5243 ft 277 kts 248°
2026-04-23 19:01 -1.40919 116.84655 4978 ft 278 kts 248°
2026-04-23 19:02 -1.41381 116.83433 4778 ft 278 kts 248°
2026-04-23 19:02 -1.42264 116.81068 4376 ft 268 kts 249°
2026-04-23 19:02 -1.42900 116.79349 4095 ft 262 kts 249°
2026-04-23 19:02 -1.43371 116.77600 3808 ft 261 kts 266°
2026-04-23 19:03 -1.43073 116.75842 3521 ft 255 kts 294°
2026-04-23 19:03 -1.42067 116.74464 3328 ft 239 kts 320°
2026-04-23 19:03 -1.40679 116.73669 3147 ft 223 kts 339°
2026-04-23 19:03 -1.39282 116.73094 2979 ft 210 kts 338°
2026-04-23 19:04 -1.37975 116.72550 2817 ft 198 kts 338°
2026-04-23 19:04 -1.36694 116.72169 2641 ft 187 kts 358°
2026-04-23 19:04 -1.35459 116.72356 2500 ft 176 kts 24°
2026-04-23 19:04 -1.34493 116.73006 2422 ft 162 kts 48°
2026-04-23 19:05 -1.33901 116.73895 2380 ft 150 kts 64°
2026-04-23 19:05 -1.33428 116.74806 2303 ft 146 kts 63°
2026-04-23 19:05 -1.32958 116.75703 2235 ft 145 kts 63°
2026-04-23 19:05 -1.32495 116.76589 2167 ft 145 kts 63°
2026-04-23 19:06 -1.32028 116.77483 2102 ft 144 kts 63°
2026-04-23 19:06 -1.31562 116.78373 2040 ft 144 kts 63°
2026-04-23 19:06 -1.31124 116.79261 1937 ft 145 kts 67°
2026-04-23 19:06 -1.30727 116.80184 1733 ft 144 kts 68°
2026-04-23 19:07 -1.30341 116.81106 1572 ft 144 kts 68°
2026-04-23 19:07 -1.29954 116.82027 1386 ft 144 kts 68°
2026-04-23 19:07 -1.29568 116.82947 1198 ft 144 kts 68°
2026-04-23 19:07 -1.29182 116.83867 1014 ft 144 kts 68°
2026-04-23 19:08 -1.28794 116.84789 832 ft 144 kts 68°
2026-04-23 19:08 -1.28405 116.85710 649 ft 144 kts 68°
2026-04-23 19:08 -1.28015 116.86632 455 ft 144 kts 68°
2026-04-23 19:08 -1.27625 116.87552 252 ft 144 kts 68°
2026-04-23 19:09 -1.27249 116.88476 64 ft 144 kts 68°
2026-04-23 19:09 -1.26886 116.89334 23 ft 111 kts 67°
2026-04-23 19:09 -1.26702 116.89769 24 ft 37 kts 67°
2026-04-23 19:09 -1.26610 116.89988 22 ft 27 kts 67°
2026-04-23 19:10 -1.26527 116.90115 20 ft 18 kts 20°
2026-04-23 19:10 -1.26441 116.90094 23 ft 13 kts 338°
2026-04-23 19:10 -1.26378 116.90067 21 ft 7 kts 336°
2026-04-23 19:10 -1.26330 116.90035 21 ft 9 kts 298°
2026-04-23 19:11 -1.26329 116.89997 21 ft 3 kts 271°
2026-04-23 19:11 -1.26311 116.89981 21 ft 5 kts 330°
2026-04-23 19:11 -1.26296 116.89974 21 ft 2 kts 343°
2026-04-23 19:11 -1.26281 116.89969 21 ft 1 kts 336°
2026-04-23 19:12 -1.26273 116.89965 21 ft 3 kts 338°
2026-04-23 19:12 -1.26265 116.89962 21 ft 0 kts 338°